Miscellaneous Local Product
Issued by NWS North Platte, NE

Home | Current Version | Previous Version | Graphics & Text | Print | Product List | Glossary On
Versions: 1 2 3 4 5 6 7 8 9 10 11 12 13 14 15 16 17 18 19 20 21 22 23 24 25 26 27 28 29 30 31 32 33 34 35 36 37 38 39 40 41 42 43 44 45 46 47 48 49 50
000
AXUS43 KLBF 202310
MISLBF


WESTERN AND NORTH CENTRAL NEBRASKA HOURLY WEATHER ROUNDUP
NATIONAL WEATHER SERVICE NORTH PLATTE NE
500 PM CST TUE FEB 20 2018

NOTE: "FAIR" INDICATES FEW OR NO CLOUDS BELOW 12,000 FEET WITH NO
SIGNIFICANT WEATHER AND/OR OBSTRUCTIONS TO VISIBILITY.

NOTE: STATIONS NOT REPORTING VARIABLES SUCH AS SKY/WEATHER OR
PRESSURE ARE PROVIDED BY RAWS AND APRS NETWORKS AND ARE NOT UNDER
NATIONAL WEATHER SERVICE QUALITY CONTROL.

...OBSERVATIONS IN AND NEAR THE EASTERN PANHANDLE OF NEBRASKA...

CITY           SKY/WX    TMP DP  RH WIND       PRES   REMARKS
PINE RIDGE     FAIR       6  -4  63 SW7       30.16R WCI  -6
GORDON         FAIR       7  -6  55 NW6       30.13R WCI  -3
CHADRON        FAIR       6  -5  60 W10       30.17R WCI  -9
ALLIANCE       FAIR       8  -1  66 CALM      30.10R
SIDNEY         FAIR      11  -3  53 N9        30.09R WCI  -2
$$

...OBSERVATIONS IN NORTHERN NEBRASKA AND FAR SOUTHERN SOUTH DAKOTA...

CITY           SKY/WX    TMP DP  RH WIND       PRES   REMARKS
WINNER         FAIR       9  -1  64 NW10      30.27R WCI  -5
VALENTINE      FAIR       9  -3  58 W8        30.23R WCI  -3
AINSWORTH      FAIR       9   0  68 NW10      30.23R WCI  -5
O`NEILL        FAIR      10   2  71 NW10      30.28R WCI  -4
THEDFORD       FAIR      10   0  63 NW12      30.21R WCI  -5
BROKEN BOW     FAIR      12   0  58 N12       30.23R WCI  -2
ORD            FAIR      13   2  61 N13       30.25R WCI  -2
ALBION         FAIR      14   5  68 NW16G23   30.26R WCI  -2
$$

...OBSERVATIONS IN SOUTHWEST NEBRASKA AND FAR NORTHEAST COLORADO...

CITY           SKY/WX    TMP DP  RH WIND       PRES   REMARKS
WRAY           FAIR      19   3  49 N13       30.14R WCI   7
HOLYOKE        FAIR      19   1  45 N13       30.14R WCI   7
IMPERIAL       FAIR      15   1  53 N13       30.16R WCI   1
OGALLALA       FAIR      14   1  56 NW9       30.17R WCI   2
NORTH PLATTE   FAIR      15   1  53 N10       30.21R WCI   2
MCCOOK         FAIR      17   4  56 N6        30.22R WCI   9
LEXINGTON      FAIR      17   4  58 N10       30.24R WCI   4
GOTHENBURG       N/A     14   1  57 N8          N/A  WCI   3
CALLAWAY         N/A     12   3  66 N8          N/A  WCI   0
$$

...OBSERVATIONS IN CENTRAL LINCOLN COUNTY AREA...

CITY           SKY/WX    TMP DP  RH WIND       PRES   REMARKS
N.P. AIRPORT   FAIR      15   1  53 N10       30.21R WCI   2
$$

...OBSERVATIONS ACROSS THE ROCKIES AND WESTERN HIGH PLAINS...

CITY           SKY/WX    TMP DP  RH WIND       PRES   REMARKS
RAPID CITY     FAIR       0  -6  76 S9        30.15R WCI -15
SCOTTSBLUFF    FAIR      13  -1  54 NW6       30.11R WCI   4
CHEYENNE       FAIR      19   5  54 MISG      29.92R
DENVER         PTSUNNY   12   4  70 CALM      29.99R
BERTHOUD PASS  CLOUDY    -6 -15  65 W15G30    29.67R WCI -27
COPPER MTN     LGT SNOW   5  -9  51 W16G30    29.70R WCI -14
MONARCH PASS     N/A      1  -4  78 W18G33    29.83R WCI -19
ASPEN          PTSUNNY   14   7  73 N8        29.89R WCI   3
LARAMIE        FAIR      11   0  61 W10       29.86R WCI  -3
CASPER         FAIR      12   2  64 SW10      29.96R WCI  -1
$$

...OBSERVATIONS ACROSS THE NORTHERN PLAINS...

CITY           SKY/WX    TMP DP  RH WIND       PRES   REMARKS
BISMARCK       FAIR      11  -1  58 W18       30.18R WCI  -7
FARGO          FAIR      11   2  67 NW13      30.19R WCI  -4
PIERRE         FAIR       7  -1  70 W14       30.26R WCI -10
SIOUX FALLS    FAIR      11   3  70 NW15      30.24R WCI  -5
$$

...OBSERVATIONS ACROSS THE CENTRAL AND SOUTHERN PLAINS...

CITY           SKY/WX    TMP DP  RH WIND       PRES   REMARKS
OMAHA          PTSUNNY   19  11  70 NW23G30   30.24R WCI   2
GRAND ISLAND   FAIR      18   5  57 NW20      30.25R WCI   2
KANSAS CITY    CLOUDY    23  18  81 N14       30.18R WCI  11
WICHITA        PTSUNNY   25  19  78 N17       30.17R WCI  12
DODGE CITY     FAIR      30   3  31 N17G26    30.14R WCI  18
OKLAHOMA CITY  CLOUDY    27  24  89 N20G30    30.09R WCI  13
DALLAS         HVY RAIN  49  47  93 N25       29.91  VSB 1
AMARILLO       FAIR      39  12  33 NE16G22   30.02R WCI  30
$$




USA.gov is the U.S. government's official web portal to all federal, state and local government web resources and services.